Location: Waco, TX
(31.5480°N, 97.1670°W)
Time: 07:11:45
(UTC-05:00)

ISS - Pass Details

Date: 05 January 2018
Orbit: 402 x 409 km, 51.6° (Epoch: 21 August)

Event Time Altitude Azimuth Distance (km) Brightness Sun altitude
Rises 09:57:45 0° 323° (NW) 2,382 -0.5 24.2°
Reaches altitude 10° 09:59:58 10° 332° (NNW) 1,516 -1.4 24.5°
Maximum altitude 10:03:08 35° 41° (NE) 707 -2.5 24.9°
Drops below altitude 10° 10:06:17 10° 109° (ESE) 1,510 0.1 25.3°
Sets 10:08:29 0° 118° (ESE) 2,371 1.1 25.6°
